Moriarty, NM

2:58 PM MST on February 07, 2016 (GMT -0700)
Moriarty

Weather History for K0E0 - October, 2012

Change the Weather History Date:

Thursday, October 11, 2012

  Actual Average (KABQ) Record (KABQ)
Temperature  
Mean Temperature 57 °F 60 °F  
Max Temperature 79 °F 71 °F 88 °F (1979)
Min Temperature 35 °F 48 °F 24 °F (1913)
Degree Days  
Heating Degree Days 8 6  
Month to date heating degree days 47  
Since 1 July heating degree days 73  
Cooling Degree Days 0 0  
Month to date cooling degree days 7  
Year to date cooling degree days 1319  
Growing Degree Days 7 (Base 50)    
Moisture  
Dew Point 35 °F    
Average Humidity 54    
Maximum Humidity 81    
Minimum Humidity 19    
Precipitation  
Precipitation 0.01 in 0.04 in 0.55 in (2000)
Month to date precipitation 0.43  
Year to date precipitation 7.79  
Snow  
Snow 0.00 in - - ()
Month to date snowfall  
Since 1 July snowfall  
Since 1 September snowfall  
Snow Depth -    
Sea Level Pressure  
Sea Level Pressure 30.20 in    
Wind  
Wind Speed 5 mph (SSW)    
Max Wind Speed 21 mph    
Max Gust Speed 40 mph    
Visibility 10 miles    
Events Rain , Thunderstorm    
T = Trace of Precipitation, MM = Missing Value Source: NWS Daily Summary

Daily Weather History Graph

Daily Weather History Graph

Search for Another Location

Airport or City:

Trip Planner

Search our weather history database for the weather conditions in past years. The results will help you decide how hot, cold, wet, or windy it might be!

Date:

Astronomy

Oct. 11, 2012 Rise Set
Actual Time 7:07 AM MDT 6:33 PM MDT
Civil Twilight 6:41 AM MDT 6:58 PM MDT
Nautical Twilight 6:12 AM MDT 7:28 PM MDT
Astronomical Twilight 5:43 AM MDT 7:57 PM MDT
Moon 2:57 AM MDT (10/11) 4:04 PM MDT (10/11)
Length of Visible Light 12h 17m
Length of Day
11h 26m
Waning Crescent, 18% of the Moon is Illuminated
Oct 11
Waning Crescent
Oct 15
New
Oct 21
First Quarter
Oct 29
Full
Nov 6
Last Quarter

Hourly Weather History & Observations

Time (MDT) Temp. Windchill Dew Point Humidity Pressure Visibility Wind Dir Wind Speed Gust Speed Precip Events Conditions
12:15 AM 41.2 °F 37.3 °F 29.7 °F 64% 30.19 in 10.0 mi NW 5.8 mph - N/A   Clear
12:35 AM 40.3 °F 36.3 °F 29.3 °F 65% 30.19 in 10.0 mi NW 5.8 mph - N/A   Clear
12:55 AM 40.1 °F 36.9 °F 29.1 °F 65% 30.18 in 10.0 mi NNW 4.6 mph - N/A   Clear
1:15 AM 40.1 °F 36.9 °F 28.2 °F 63% 30.18 in 10.0 mi NNW 4.6 mph - N/A   Clear
1:55 AM 38.1 °F 35.7 °F 27.3 °F 65% 30.18 in 10.0 mi North 3.5 mph - N/A   Clear
2:15 AM 38.3 °F - 27.3 °F 65% 30.18 in 10.0 mi Calm Calm - N/A   Clear
2:35 AM 37.9 °F 35.5 °F 27.0 °F 65% 30.18 in 10.0 mi NNW 3.5 mph - N/A   Clear
2:55 AM 37.6 °F - 26.8 °F 65% 30.18 in 10.0 mi Calm Calm - N/A   Clear
3:15 AM 37.6 °F - 27.0 °F 66% 30.18 in 10.0 mi Calm Calm - N/A   Clear
3:35 AM 35.6 °F 31.7 °F 25.3 °F 66% 30.17 in 10.0 mi NNW 4.6 mph - N/A   Clear
3:55 AM 35.2 °F - 25.7 °F 68% 30.18 in 10.0 mi Calm Calm - N/A   Clear
4:15 AM 35.8 °F - 25.7 °F 67% 30.17 in 10.0 mi Calm Calm - N/A   Clear
4:35 AM 36.0 °F 33.3 °F 25.9 °F 67% 30.17 in 10.0 mi North 3.5 mph - N/A   Clear
4:55 AM 35.8 °F 33.0 °F 26.2 °F 68% 30.17 in 10.0 mi North 3.5 mph - N/A   Clear
5:15 AM 35.1 °F 32.2 °F 25.7 °F 69% 30.18 in 10.0 mi North 3.5 mph - N/A   Clear
5:35 AM 36.0 °F 32.1 °F 26.2 °F 68% 30.18 in 10.0 mi North 4.6 mph - N/A   Clear
5:55 AM 36.3 °F 31.6 °F 26.4 °F 67% 30.19 in 10.0 mi North 5.8 mph - N/A   Clear
6:15 AM 36.1 °F 31.4 °F 26.6 °F 68% 30.19 in 10.0 mi NNW 5.8 mph - N/A   Clear
6:35 AM 35.6 °F 30.7 °F 27.0 °F 71% 30.19 in 10.0 mi North 5.8 mph - N/A   Clear
6:55 AM 36.3 °F - 26.4 °F 67% 30.20 in 10.0 mi Calm Calm - N/A   Clear
7:15 AM 36.7 °F - 27.5 °F 69% 30.20 in 10.0 mi Calm Calm - N/A   Clear
7:35 AM 35.2 °F 32.4 °F 26.6 °F 71% 30.20 in 10.0 mi North 3.5 mph - N/A   Scattered Clouds
7:55 AM 37.8 °F - 27.9 °F 67% 30.21 in 10.0 mi Calm Calm - N/A   Scattered Clouds
8:15 AM 40.8 °F - 28.9 °F 63% 30.22 in 10.0 mi Calm Calm - N/A   Clear
8:35 AM 43.7 °F - 29.3 °F 57% 30.22 in 10.0 mi Calm Calm - N/A   Scattered Clouds
8:55 AM 47.3 °F - 30.6 °F 52% 30.22 in 10.0 mi Calm Calm - N/A   Clear
9:15 AM 50.2 °F - 31.3 °F 48% 30.22 in 10.0 mi Calm Calm - N/A   Mostly Cloudy
9:35 AM 52.9 °F - 32.0 °F 45% 30.23 in 10.0 mi Calm Calm - N/A   Overcast
9:55 AM 55.9 °F - 32.5 °F 41% 30.22 in 10.0 mi Calm Calm - N/A   Scattered Clouds
10:15 AM 61.2 °F - 34.0 °F 36% 30.23 in 10.0 mi Calm Calm - N/A   Clear
10:35 AM 65.5 °F - 36.1 °F 34% 30.23 in 10.0 mi South 5.8 mph - N/A   Clear
10:55 AM 67.5 °F - 36.3 °F 32% 30.23 in 10.0 mi South 5.8 mph - N/A   Clear
11:15 AM 70.0 °F - 37.4 °F 30% 30.23 in 10.0 mi SSE 5.8 mph - N/A   Scattered Clouds
11:55 AM 73.4 °F - 37.8 °F 27% 30.22 in 10.0 mi South 9.2 mph - N/A   Mostly Cloudy
12:15 PM 72.9 °F - 37.8 °F 28% 30.21 in 10.0 mi South 6.9 mph - N/A   Mostly Cloudy
12:35 PM 72.9 °F - 38.1 °F 28% 30.20 in 10.0 mi SSW 9.2 mph - N/A   Mostly Cloudy
12:55 PM 74.7 °F - 37.8 °F 26% 30.19 in 10.0 mi South 11.5 mph 19.6 mph N/A   Mostly Cloudy
1:15 PM 77.7 °F - 34.9 °F 21% 30.17 in 10.0 mi SSW 9.2 mph - N/A   Scattered Clouds
1:35 PM 78.4 °F - 35.1 °F 21% 30.16 in 10.0 mi SW 18.4 mph 23.0 mph N/A   Scattered Clouds
1:55 PM 77.4 °F - 33.4 °F 20% 30.16 in 10.0 mi South 16.1 mph 25.3 mph N/A   Clear
2:15 PM 78.6 °F - 33.3 °F 19% 30.16 in 10.0 mi South 15.0 mph 24.2 mph N/A   Scattered Clouds
2:55 PM 79.2 °F - 34.7 °F 20% 30.14 in 10.0 mi SSW 9.2 mph - N/A   Clear
3:15 PM 76.8 °F - 34.7 °F 22% 30.15 in 10.0 mi SSW 16.1 mph 19.6 mph N/A   Scattered Clouds
3:35 PM 76.1 °F - 35.8 °F 23% 30.15 in 10.0 mi SSW 11.5 mph - N/A   Mostly Cloudy
4:15 PM 67.1 °F - 47.8 °F 50% 30.17 in 5.0 mi WSW 12.7 mph 40.3 mph 0.01 in Rain , Thunderstorm Thunderstorms and Rain
4:35 PM 65.7 °F - 46.2 °F 49% 30.17 in 10.0 mi WSW 9.2 mph 27.6 mph 0.01 in Rain Light Rain
4:55 PM 65.3 °F - 49.1 °F 56% 30.17 in 10.0 mi WSW 11.5 mph - 0.01 in   Mostly Cloudy
5:35 PM 66.2 °F - 46.0 °F 48% 30.18 in 10.0 mi SSW 9.2 mph - N/A   Overcast
5:55 PM 67.6 °F - 38.8 °F 35% 30.18 in 10.0 mi SSW 15.0 mph 23.0 mph N/A   Mostly Cloudy
6:15 PM 67.1 °F - 38.5 °F 35% 30.19 in 10.0 mi SSW 19.6 mph - N/A   Overcast
6:35 PM 65.7 °F - 41.0 °F 41% 30.20 in 10.0 mi SSW 20.7 mph 26.5 mph N/A   Overcast
7:15 PM 63.0 °F - 45.3 °F 53% 30.18 in 10.0 mi SSE 13.8 mph - N/A Rain Light Rain
7:35 PM 61.3 °F - 46.6 °F 58% 30.20 in 10.0 mi Calm Calm - N/A   Mostly Cloudy
7:55 PM 61.5 °F - 46.4 °F 58% 30.21 in 10.0 mi South 5.8 mph - N/A   Overcast
8:15 PM 60.4 °F - 47.5 °F 62% 30.22 in 10.0 mi South 5.8 mph - N/A   Overcast
8:55 PM 58.5 °F - 48.2 °F 69% 30.23 in 10.0 mi South 5.8 mph - N/A   Scattered Clouds
9:15 PM 56.7 °F - 48.4 °F 74% 30.23 in 10.0 mi South 8.1 mph - N/A   Scattered Clouds
9:55 PM 54.0 °F - 47.3 °F 78% 30.24 in 10.0 mi SSE 8.1 mph - N/A   Clear
10:15 PM 55.0 °F - 47.5 °F 76% 30.24 in 10.0 mi SSE 4.6 mph - N/A   Clear
10:35 PM 53.2 °F - 47.7 °F 81% 30.24 in 10.0 mi ENE 4.6 mph - N/A   Clear
10:55 PM 53.6 °F - 47.3 °F 79% 30.23 in 10.0 mi ESE 5.8 mph - N/A   Clear
11:35 PM 53.6 °F - 46.4 °F 77% 30.23 in 10.0 mi ESE 3.5 mph - N/A   Clear
11:55 PM 52.2 °F - 46.4 °F 81% 30.23 in 10.0 mi Calm Calm - N/A   Clear